ENT4WJ LGKO-EPKT

Flight info

Callsign ENT4WJ
Flight time 2h 17m
Altitude 38000
Route LARKI UL609 MES DCT ATFIR N133 USALI DCT LOMOS DCT BUDOP DCT PITOK DCT REDSI/N0442F390 DCT MEBAN
Aircraft B738/M-SDGHIJ1RWXY/EB1

Departure

Time 2026-05-04 16:55
Airport Kos International Airport "Ippokratis" (LGKO)

Arrival

Time 2026-05-04 19:12
Airport Katowice Wojciech Korfanty International Airport (EPKT)
Time Latitude Longitude Altitude Speed Heading
2026-05-04 16:28 36.80143 27.08921 418 ft 0 kts 58°
2026-05-04 16:42 36.80131 27.08897 408 ft 3 kts 58°
2026-05-04 16:43 36.80118 27.08852 408 ft 3 kts 107°
2026-05-04 16:43 36.80146 27.08818 412 ft 2 kts 148°
2026-05-04 16:43 36.80147 27.08817 412 ft 0 kts 148°
2026-05-04 16:46 36.80145 27.08818 412 ft 1 kts 150°
2026-05-04 16:46 36.80053 27.08889 412 ft 10 kts 148°
2026-05-04 16:47 36.79935 27.08977 418 ft 10 kts 165°
2026-05-04 16:47 36.79805 27.08986 416 ft 6 kts 178°
2026-05-04 16:48 36.79800 27.08986 416 ft 0 kts 178°
2026-05-04 16:51 36.79676 27.08989 415 ft 17 kts 179°
2026-05-04 16:52 36.79429 27.09138 415 ft 24 kts 149°
2026-05-04 16:52 36.79278 27.09255 408 ft 27 kts 148°
2026-05-04 16:53 36.78973 27.09492 396 ft 27 kts 148°
2026-05-04 16:53 36.78559 27.09808 387 ft 10 kts 50°
2026-05-04 16:54 36.78617 27.09768 390 ft 10 kts 328°
2026-05-04 16:55 36.81161 27.07460 1935 ft 169 kts 309°
2026-05-04 16:55 36.81477 27.04463 3529 ft 205 kts 270°
2026-05-04 16:56 36.82743 27.01240 4115 ft 231 kts 328°
2026-05-04 16:56 36.87261 26.98595 6529 ft 247 kts 337°
2026-05-04 16:57 36.88832 26.97745 7473 ft 246 kts 336°
2026-05-04 16:57 36.92026 26.96001 9114 ft 252 kts 335°
2026-05-04 16:58 36.97110 26.93190 10700 ft 293 kts 335°
2026-05-04 16:58 36.99044 26.92113 10937 ft 315 kts 335°
2026-05-04 16:59 37.02466 26.90199 11915 ft 327 kts 336°
2026-05-04 17:00 37.10945 26.85459 14826 ft 338 kts 337°
2026-05-04 17:00 37.17445 26.81812 16853 ft 345 kts 337°
2026-05-04 17:01 37.21866 26.79327 18208 ft 351 kts 337°
2026-05-04 17:01 37.26365 26.76794 19231 ft 359 kts 337°
2026-05-04 17:02 37.30987 26.74188 20186 ft 369 kts 336°
2026-05-04 17:02 37.35688 26.71532 21284 ft 373 kts 336°
2026-05-04 17:03 37.38068 26.70187 21754 ft 378 kts 336°
2026-05-04 17:03 37.40478 26.68824 22210 ft 382 kts 336°
2026-05-04 17:03 37.45375 26.66052 23115 ft 390 kts 336°
2026-05-04 17:04 37.50365 26.63221 23931 ft 397 kts 336°
2026-05-04 17:04 37.55430 26.60345 24722 ft 402 kts 336°
2026-05-04 17:05 37.60561 26.57426 25445 ft 407 kts 336°
2026-05-04 17:05 37.65720 26.54488 26262 ft 409 kts 337°
2026-05-04 17:06 37.70654 26.50719 26900 ft 420 kts 322°
2026-05-04 17:06 37.72843 26.48309 27135 ft 425 kts 321°
2026-05-04 17:07 37.77294 26.43332 27771 ft 430 kts 321°
2026-05-04 17:07 37.78820 26.41641 27985 ft 432 kts 322°
2026-05-04 17:07 37.81837 26.38323 28314 ft 437 kts 322°
2026-05-04 17:07 37.84143 26.35797 28601 ft 439 kts 322°
2026-05-04 17:08 37.86459 26.33259 28910 ft 442 kts 322°
2026-05-04 17:08 37.91133 26.28142 29471 ft 446 kts 322°
2026-05-04 17:08 37.93486 26.25566 29711 ft 449 kts 322°
2026-05-04 17:09 37.95854 26.22970 29953 ft 452 kts 322°
2026-05-04 17:09 37.98236 26.20355 30255 ft 453 kts 322°
2026-05-04 17:09 38.00609 26.17746 30650 ft 450 kts 322°
2026-05-04 17:10 38.05293 26.12589 31578 ft 442 kts 322°
2026-05-04 17:10 38.12226 26.04952 32576 ft 439 kts 322°
2026-05-04 17:11 38.14538 26.02401 32753 ft 442 kts 321°
2026-05-04 17:11 38.16857 25.99839 33040 ft 441 kts 321°
2026-05-04 17:11 38.21454 25.94753 33852 ft 435 kts 321°
2026-05-04 17:12 38.23733 25.92232 34188 ft 433 kts 322°
2026-05-04 17:12 38.28777 25.88140 34629 ft 430 kts 334°
2026-05-04 17:13 38.36785 25.83088 35372 ft 427 kts 334°
2026-05-04 17:14 38.44764 25.77991 35944 ft 428 kts 334°
2026-05-04 17:14 38.47383 25.76301 36231 ft 426 kts 334°
2026-05-04 17:14 38.52643 25.72895 36718 ft 423 kts 333°
2026-05-04 17:15 38.55265 25.71195 36904 ft 423 kts 333°
2026-05-04 17:15 38.60503 25.67794 37336 ft 422 kts 333°
2026-05-04 17:16 38.65730 25.64394 37678 ft 422 kts 333°
2026-05-04 17:16 38.73567 25.59288 38072 ft 423 kts 333°
2026-05-04 17:17 38.76186 25.57579 38093 ft 423 kts 333°
2026-05-04 17:18 38.86596 25.50770 38085 ft 417 kts 333°
2026-05-04 17:19 38.96881 25.44021 38085 ft 414 kts 333°
2026-05-04 17:20 39.07147 25.37262 38090 ft 416 kts 333°
2026-05-04 17:20 39.14898 25.32144 38073 ft 419 kts 333°
2026-05-04 17:21 39.25320 25.25244 38085 ft 423 kts 333°
2026-05-04 17:22 39.30569 25.21759 38084 ft 425 kts 333°
2026-05-04 17:23 39.41109 25.14744 38076 ft 427 kts 333°
2026-05-04 17:24 39.49025 25.09460 38072 ft 427 kts 333°
2026-05-04 17:25 39.59548 25.02414 38073 ft 425 kts 333°
2026-05-04 17:26 39.69978 24.95407 38074 ft 422 kts 333°
2026-05-04 17:27 39.82987 24.86633 38074 ft 420 kts 333°
2026-05-04 17:28 39.93368 24.79605 38070 ft 421 kts 333°
2026-05-04 17:29 40.08965 24.68999 38066 ft 423 kts 333°
2026-05-04 17:31 40.22020 24.60079 38057 ft 424 kts 333°
2026-05-04 17:32 40.35110 24.51096 38041 ft 425 kts 333°
2026-05-04 17:33 40.45584 24.43880 38057 ft 425 kts 332°
2026-05-04 17:34 40.56038 24.36652 38054 ft 424 kts 332°
2026-05-04 17:35 40.69073 24.27603 38055 ft 423 kts 332°
2026-05-04 17:36 40.74278 24.23978 38052 ft 423 kts 332°
2026-05-04 17:36 40.79477 24.20351 38050 ft 423 kts 332°
2026-05-04 17:37 40.84673 24.16720 38055 ft 423 kts 332°
2026-05-04 17:37 40.89869 24.13082 38041 ft 423 kts 332°
2026-05-04 17:38 40.95066 24.09438 38054 ft 423 kts 332°
2026-05-04 17:38 41.00273 24.05779 38043 ft 424 kts 332°
2026-05-04 17:39 41.08087 24.00276 38059 ft 424 kts 332°
2026-05-04 17:39 41.13300 23.96597 38066 ft 424 kts 332°
2026-05-04 17:40 41.18474 23.92938 38065 ft 424 kts 332°
2026-05-04 17:40 41.23720 23.89222 38070 ft 424 kts 332°
2026-05-04 17:41 41.28895 23.85549 38083 ft 425 kts 332°
2026-05-04 17:41 41.34113 23.81839 38072 ft 425 kts 332°
2026-05-04 17:42 41.39393 23.78334 38074 ft 424 kts 340°
2026-05-04 17:42 41.45138 23.76669 38087 ft 424 kts 353°
2026-05-04 17:43 41.51022 23.75892 38085 ft 425 kts 354°
2026-05-04 17:43 41.56946 23.75107 38098 ft 425 kts 354°
2026-05-04 17:44 41.61837 23.74429 38095 ft 425 kts 353°
2026-05-04 17:44 41.68681 23.73459 38103 ft 425 kts 353°
2026-05-04 17:45 41.74569 23.72617 38109 ft 426 kts 353°
2026-05-04 17:45 41.80467 23.71773 38110 ft 426 kts 353°
2026-05-04 17:46 41.85411 23.71065 38111 ft 426 kts 353°
2026-05-04 17:46 41.91311 23.70219 38123 ft 426 kts 353°
2026-05-04 17:47 41.97214 23.69370 38116 ft 427 kts 353°
2026-05-04 17:47 42.03121 23.68520 38126 ft 427 kts 353°
2026-05-04 17:48 42.08990 23.67673 38115 ft 427 kts 353°
2026-05-04 17:48 42.14888 23.66821 38112 ft 426 kts 353°
2026-05-04 17:49 42.20788 23.65967 38115 ft 427 kts 353°
2026-05-04 17:49 42.26736 23.65104 38120 ft 427 kts 353°
2026-05-04 17:50 42.32586 23.64117 38117 ft 427 kts 350°
2026-05-04 17:50 42.38424 23.62649 38118 ft 427 kts 349°
2026-05-04 17:51 42.44250 23.61098 38118 ft 427 kts 349°
2026-05-04 17:51 42.50081 23.59580 38120 ft 426 kts 349°
2026-05-04 17:52 42.55914 23.58088 38110 ft 426 kts 349°
2026-05-04 17:52 42.61744 23.56604 38112 ft 427 kts 349°
2026-05-04 17:53 42.67583 23.55116 38105 ft 427 kts 349°
2026-05-04 17:53 42.73412 23.53627 38108 ft 426 kts 349°
2026-05-04 17:54 42.79250 23.52133 38103 ft 427 kts 349°
2026-05-04 17:54 42.85082 23.50637 38111 ft 427 kts 349°
2026-05-04 17:55 42.90925 23.49135 38107 ft 428 kts 349°
2026-05-04 17:55 42.96778 23.47628 38104 ft 428 kts 349°
2026-05-04 17:56 43.02629 23.46118 38090 ft 428 kts 349°
2026-05-04 17:56 43.08490 23.44603 38103 ft 429 kts 349°
2026-05-04 17:57 43.14359 23.43083 38091 ft 429 kts 349°
2026-05-04 17:57 43.20230 23.41560 38089 ft 430 kts 349°
2026-05-04 17:58 43.26100 23.40034 38089 ft 429 kts 349°
2026-05-04 17:58 43.31974 23.38503 38087 ft 430 kts 349°
2026-05-04 17:59 43.37850 23.36969 38073 ft 430 kts 349°
2026-05-04 18:00 43.46655 23.34665 38075 ft 429 kts 349°
2026-05-04 18:00 43.52519 23.33126 38072 ft 429 kts 349°
2026-05-04 18:01 43.58377 23.31587 38059 ft 429 kts 349°
2026-05-04 18:01 43.64235 23.30044 38057 ft 428 kts 349°
2026-05-04 18:02 43.72975 23.27736 38048 ft 428 kts 349°
2026-05-04 18:02 43.78825 23.26188 38050 ft 428 kts 349°
2026-05-04 18:03 43.84619 23.24346 38037 ft 428 kts 339°
2026-05-04 18:03 43.90100 23.21175 38049 ft 427 kts 337°
2026-05-04 18:04 43.95563 23.17910 38047 ft 427 kts 337°
2026-05-04 18:05 44.03774 23.13058 38041 ft 428 kts 337°
2026-05-04 18:05 44.09253 23.09840 38049 ft 428 kts 338°
2026-05-04 18:06 44.17481 23.05004 38046 ft 428 kts 338°
2026-05-04 18:06 44.22962 23.01775 38042 ft 428 kts 337°
2026-05-04 18:07 44.28455 22.98531 38045 ft 429 kts 337°
2026-05-04 18:07 44.33946 22.95281 38038 ft 428 kts 337°
2026-05-04 18:08 44.39434 22.92027 38043 ft 428 kts 337°
2026-05-04 18:08 44.44921 22.88766 38041 ft 429 kts 337°
2026-05-04 18:09 44.55861 22.82246 38039 ft 429 kts 337°
2026-05-04 18:10 44.61343 22.78969 38039 ft 428 kts 337°
2026-05-04 18:10 44.66828 22.75682 38039 ft 429 kts 337°
2026-05-04 18:11 44.72311 22.72391 38043 ft 428 kts 337°
2026-05-04 18:11 44.77792 22.69094 38054 ft 428 kts 337°
2026-05-04 18:12 44.83273 22.65790 38052 ft 428 kts 337°
2026-05-04 18:12 44.88750 22.62481 38055 ft 428 kts 337°
2026-05-04 18:13 44.94228 22.59165 38071 ft 428 kts 337°
2026-05-04 18:14 45.02451 22.54174 38091 ft 429 kts 337°
2026-05-04 18:14 45.07935 22.50837 38088 ft 429 kts 337°
2026-05-04 18:15 45.18924 22.44129 38086 ft 430 kts 337°
2026-05-04 18:16 45.24410 22.40770 38097 ft 430 kts 337°
2026-05-04 18:16 45.29895 22.37404 38104 ft 429 kts 337°
2026-05-04 18:17 45.38111 22.32348 38116 ft 428 kts 337°
2026-05-04 18:18 45.46303 22.27292 38079 ft 427 kts 337°
2026-05-04 18:18 45.51744 22.23925 38086 ft 425 kts 337°
2026-05-04 18:19 45.59869 22.18883 38090 ft 423 kts 337°
2026-05-04 18:19 45.65266 22.15526 38089 ft 423 kts 337°
2026-05-04 18:20 45.70664 22.12160 38085 ft 423 kts 337°
2026-05-04 18:20 45.76055 22.08792 38079 ft 423 kts 337°
2026-05-04 18:21 45.81448 22.05416 38076 ft 423 kts 337°
2026-05-04 18:21 45.86845 22.02030 38079 ft 424 kts 337°
2026-05-04 18:22 45.92248 21.98633 38079 ft 424 kts 337°
2026-05-04 18:22 45.97661 21.95221 38077 ft 425 kts 337°
2026-05-04 18:23 46.03083 21.91798 38079 ft 426 kts 337°
2026-05-04 18:23 46.08514 21.88361 38080 ft 426 kts 336°
2026-05-04 18:24 46.13946 21.84915 38071 ft 427 kts 336°
2026-05-04 18:24 46.19380 21.81462 38077 ft 427 kts 336°
2026-05-04 18:25 46.24820 21.77997 38082 ft 427 kts 336°
2026-05-04 18:25 46.30265 21.74521 38071 ft 428 kts 336°
2026-05-04 18:26 46.35705 21.71041 38071 ft 427 kts 336°
2026-05-04 18:26 46.41142 21.67555 38073 ft 427 kts 336°
2026-05-04 18:27 46.46571 21.64066 38069 ft 427 kts 336°
2026-05-04 18:27 46.51998 21.60571 38072 ft 426 kts 336°
2026-05-04 18:28 46.57418 21.57073 38072 ft 426 kts 336°
2026-05-04 18:28 46.61917 21.54163 38067 ft 426 kts 336°
2026-05-04 18:29 46.67328 21.50657 38062 ft 425 kts 336°
2026-05-04 18:29 46.72721 21.47122 38066 ft 425 kts 336°
2026-05-04 18:30 46.80785 21.41736 38066 ft 425 kts 336°
2026-05-04 18:31 46.86165 21.38157 38068 ft 425 kts 336°
2026-05-04 18:31 46.91589 21.34718 38062 ft 425 kts 337°
2026-05-04 18:32 46.97024 21.31302 38058 ft 425 kts 337°
2026-05-04 18:32 47.02450 21.27866 38064 ft 425 kts 337°
2026-05-04 18:33 47.07869 21.24414 38071 ft 425 kts 336°
2026-05-04 18:33 47.13293 21.20945 38056 ft 425 kts 336°
2026-05-04 18:34 47.18720 21.17466 38061 ft 426 kts 336°
2026-05-04 18:34 47.24145 21.13981 38058 ft 426 kts 336°
2026-05-04 18:35 47.29574 21.10486 38049 ft 426 kts 336°
2026-05-04 18:35 47.35004 21.06982 38065 ft 426 kts 336°
2026-05-04 18:36 47.40434 21.03470 38054 ft 427 kts 336°
2026-05-04 18:36 47.45869 20.99948 38055 ft 427 kts 336°
2026-05-04 18:37 47.51311 20.96412 38049 ft 427 kts 336°
2026-05-04 18:37 47.56754 20.92868 38054 ft 427 kts 336°
2026-05-04 18:38 47.62196 20.89316 38055 ft 428 kts 336°
2026-05-04 18:38 47.67643 20.85753 38051 ft 428 kts 336°
2026-05-04 18:39 47.73091 20.82181 38053 ft 428 kts 336°
2026-05-04 18:39 47.78534 20.78604 38055 ft 427 kts 336°
2026-05-04 18:40 47.83969 20.75025 38050 ft 427 kts 336°
2026-05-04 18:40 47.89402 20.71439 38044 ft 427 kts 335°
2026-05-04 18:41 47.94835 20.67844 38059 ft 427 kts 335°
2026-05-04 18:41 48.00261 20.64245 38055 ft 427 kts 335°
2026-05-04 18:42 48.05694 20.60634 38058 ft 427 kts 335°
2026-05-04 18:42 48.11120 20.57019 38062 ft 427 kts 335°
2026-05-04 18:43 48.16552 20.53390 38060 ft 428 kts 335°
2026-05-04 18:43 48.22000 20.49743 37766 ft 433 kts 335°
2026-05-04 18:43 48.24745 20.47901 37494 ft 431 kts 335°
2026-05-04 18:44 48.27471 20.46072 37218 ft 429 kts 335°
2026-05-04 18:44 48.29278 20.44857 37043 ft 428 kts 335°
2026-05-04 18:44 48.32920 20.42408 36697 ft 429 kts 335°
2026-05-04 18:44 48.35642 20.40574 36437 ft 429 kts 335°
2026-05-04 18:45 48.38363 20.38739 36187 ft 429 kts 335°
2026-05-04 18:45 48.41087 20.36899 35932 ft 429 kts 335°
2026-05-04 18:45 48.43812 20.35057 35676 ft 429 kts 335°
2026-05-04 18:45 48.46539 20.33211 35423 ft 429 kts 335°
2026-05-04 18:46 48.49261 20.31366 35179 ft 428 kts 335°
2026-05-04 18:46 48.51936 20.29551 34941 ft 427 kts 335°
2026-05-04 18:46 48.54641 20.27713 34689 ft 425 kts 335°
2026-05-04 18:46 48.57332 20.25882 34441 ft 424 kts 335°
2026-05-04 18:47 48.60011 20.24059 34206 ft 421 kts 335°
2026-05-04 18:47 48.65309 20.20446 34076 ft 418 kts 335°
2026-05-04 18:48 48.70615 20.16818 34059 ft 418 kts 335°
2026-05-04 18:48 48.73261 20.15006 33776 ft 417 kts 335°
2026-05-04 18:48 48.75889 20.13204 33524 ft 410 kts 335°
2026-05-04 18:48 48.78462 20.11439 33360 ft 399 kts 335°
2026-05-04 18:49 48.80965 20.09720 33109 ft 395 kts 335°
2026-05-04 18:49 48.85963 20.06279 33068 ft 396 kts 334°
2026-05-04 18:50 48.91036 20.02777 33086 ft 403 kts 334°
2026-05-04 18:50 48.96143 19.99246 32782 ft 403 kts 334°
2026-05-04 18:50 48.98680 19.97490 32525 ft 399 kts 334°
2026-05-04 18:51 49.01191 19.95750 32256 ft 393 kts 334°
2026-05-04 18:51 49.03675 19.94025 31994 ft 391 kts 334°
2026-05-04 18:51 49.06153 19.92303 31743 ft 391 kts 334°
2026-05-04 18:51 49.08630 19.90580 31492 ft 391 kts 334°
2026-05-04 18:52 49.11102 19.88858 31238 ft 391 kts 334°
2026-05-04 18:52 49.13575 19.87133 30989 ft 390 kts 334°
2026-05-04 18:52 49.16041 19.85412 30738 ft 389 kts 334°
2026-05-04 18:52 49.18497 19.83695 30460 ft 385 kts 334°
2026-05-04 18:53 49.20919 19.82001 30122 ft 382 kts 334°
2026-05-04 18:53 49.23321 19.80321 29645 ft 377 kts 334°
2026-05-04 18:53 49.25688 19.78662 29004 ft 373 kts 334°
2026-05-04 18:53 49.28046 19.77007 28328 ft 372 kts 334°
2026-05-04 18:54 49.30393 19.75358 27681 ft 370 kts 334°
2026-05-04 18:54 49.32724 19.73718 27101 ft 367 kts 334°
2026-05-04 18:54 49.35034 19.72092 26528 ft 363 kts 334°
2026-05-04 18:54 49.37322 19.70479 25971 ft 360 kts 334°
2026-05-04 18:55 49.39593 19.68878 25420 ft 358 kts 334°
2026-05-04 18:55 49.44086 19.65704 24352 ft 353 kts 334°
2026-05-04 18:55 49.46385 19.64402 23819 ft 353 kts 346°
2026-05-04 18:56 49.48798 19.63744 23250 ft 351 kts 349°
2026-05-04 18:56 49.51205 19.63159 22672 ft 349 kts 349°
2026-05-04 18:56 49.53591 19.62581 22104 ft 346 kts 348°
2026-05-04 18:56 49.55961 19.62000 21554 ft 344 kts 348°
2026-05-04 18:57 49.58314 19.61416 20964 ft 342 kts 348°
2026-05-04 18:57 49.60659 19.60826 20422 ft 341 kts 348°
2026-05-04 18:57 49.62992 19.60232 19899 ft 339 kts 347°
2026-05-04 18:57 49.65313 19.59641 19380 ft 337 kts 347°
2026-05-04 18:58 49.67628 19.59051 18884 ft 335 kts 347°
2026-05-04 18:58 49.69917 19.58466 18406 ft 333 kts 347°
2026-05-04 18:58 49.72197 19.57881 17850 ft 331 kts 347°
2026-05-04 18:58 49.74462 19.57300 17313 ft 329 kts 347°
2026-05-04 18:59 49.76718 19.56720 16794 ft 327 kts 347°
2026-05-04 18:59 49.78954 19.56144 16263 ft 326 kts 347°
2026-05-04 18:59 49.81186 19.55569 15735 ft 325 kts 347°
2026-05-04 18:59 49.83410 19.54995 15245 ft 323 kts 347°
2026-05-04 19:00 49.85619 19.54425 14757 ft 321 kts 347°
2026-05-04 19:00 49.87813 19.53858 14279 ft 319 kts 347°
2026-05-04 19:00 49.90007 19.53290 13776 ft 319 kts 347°
2026-05-04 19:00 49.92190 19.52724 13269 ft 317 kts 347°
2026-05-04 19:01 49.94357 19.52163 12804 ft 314 kts 347°
2026-05-04 19:01 49.96506 19.51606 12340 ft 311 kts 347°
2026-05-04 19:01 49.98632 19.51054 11858 ft 309 kts 347°
2026-05-04 19:01 50.00749 19.50503 11405 ft 307 kts 347°
2026-05-04 19:02 50.02843 19.49958 11016 ft 303 kts 347°
2026-05-04 19:02 50.04893 19.49426 10766 ft 294 kts 347°
2026-05-04 19:02 50.06889 19.48907 10423 ft 289 kts 347°
2026-05-04 19:02 50.08868 19.48391 10018 ft 287 kts 347°
2026-05-04 19:03 50.10834 19.47876 9584 ft 286 kts 348°
2026-05-04 19:03 50.12792 19.47365 9155 ft 284 kts 348°
2026-05-04 19:03 50.14731 19.46858 8737 ft 282 kts 347°
2026-05-04 19:03 50.16662 19.46352 8354 ft 282 kts 347°
2026-05-04 19:04 50.18600 19.45844 8061 ft 282 kts 347°
2026-05-04 19:04 50.20523 19.45340 7814 ft 279 kts 347°
2026-05-04 19:04 50.22430 19.44840 7540 ft 277 kts 347°
2026-05-04 19:04 50.24329 19.44341 7243 ft 276 kts 347°
2026-05-04 19:05 50.26220 19.43844 6962 ft 276 kts 347°
2026-05-04 19:05 50.28113 19.43346 6675 ft 275 kts 347°
2026-05-04 19:05 50.29993 19.42851 6399 ft 274 kts 347°
2026-05-04 19:05 50.31846 19.42364 6114 ft 273 kts 347°
2026-05-04 19:06 50.33715 19.41871 5832 ft 272 kts 347°
2026-05-04 19:06 50.35579 19.41378 5533 ft 271 kts 347°
2026-05-04 19:06 50.37427 19.40891 5258 ft 267 kts 347°
2026-05-04 19:06 50.39230 19.40416 5058 ft 259 kts 346°
2026-05-04 19:07 50.40970 19.39958 4913 ft 248 kts 346°
2026-05-04 19:07 50.42645 19.39516 4805 ft 240 kts 346°
2026-05-04 19:07 50.44271 19.39086 4636 ft 235 kts 346°
2026-05-04 19:07 50.45865 19.38590 4395 ft 231 kts 335°
2026-05-04 19:08 50.47049 19.37155 4251 ft 207 kts 293°
2026-05-04 19:08 50.47374 19.35064 4065 ft 195 kts 272°
2026-05-04 19:08 50.47517 19.32937 3807 ft 195 kts 270°
2026-05-04 19:08 50.47573 19.30833 3582 ft 192 kts 266°
2026-05-04 19:09 50.47579 19.28753 3327 ft 189 kts 266°
2026-05-04 19:09 50.47579 19.26716 3072 ft 183 kts 266°
2026-05-04 19:09 50.47580 19.24780 2833 ft 171 kts 266°
2026-05-04 19:09 50.47581 19.22980 2639 ft 156 kts 266°
2026-05-04 19:10 50.47583 19.21356 2419 ft 144 kts 264°
2026-05-04 19:10 50.47582 19.19810 2236 ft 141 kts 264°
2026-05-04 19:10 50.47584 19.18277 2056 ft 141 kts 264°
2026-05-04 19:10 50.47586 19.16741 1872 ft 143 kts 265°
2026-05-04 19:11 50.47600 19.15161 1687 ft 146 kts 270°
2026-05-04 19:11 50.47577 19.13531 1478 ft 150 kts 265°
2026-05-04 19:11 50.47583 19.11873 1239 ft 153 kts 271°
2026-05-04 19:11 50.47590 19.10239 1078 ft 149 kts 269°
2026-05-04 19:12 50.47596 19.09160 1002 ft 145 kts 269°
2026-05-04 19:12 50.47598 19.07288 1001 ft 34 kts 265°
2026-05-04 19:12 50.47549 19.07031 999 ft 14 kts 245°
2026-05-04 19:13 50.47520 19.06942 1002 ft 6 kts 241°
2026-05-04 19:13 50.47499 19.06881 1001 ft 6 kts 241°
2026-05-04 19:13 50.47477 19.06820 1001 ft 7 kts 240°
2026-05-04 19:13 50.47441 19.06723 997 ft 14 kts 239°
2026-05-04 19:14 50.47361 19.06628 997 ft 16 kts 180°
2026-05-04 19:14 50.47255 19.06641 999 ft 15 kts 146°
2026-05-04 19:14 50.47236 19.06796 997 ft 15 kts 91°
2026-05-04 19:14 50.47235 19.06952 1002 ft 14 kts 91°
2026-05-04 19:15 50.47235 19.07100 1002 ft 13 kts 90°
2026-05-04 19:15 50.47234 19.07243 999 ft 13 kts 90°
2026-05-04 19:15 50.47234 19.07426 997 ft 12 kts 90°
2026-05-04 19:15 50.47233 19.07517 1002 ft 12 kts 89°
2026-05-04 19:16 50.47234 19.07649 1001 ft 12 kts 90°
2026-05-04 19:16 50.47233 19.07778 1002 ft 12 kts 90°
2026-05-04 19:16 50.47223 19.07870 1001 ft 7 kts 156°
2026-05-04 19:16 50.47174 19.07872 998 ft 7 kts 179°
2026-05-04 19:17 50.47147 19.07872 999 ft 3 kts 180°
2026-05-04 19:17 50.47144 19.07872 1001 ft 0 kts 180°